FENGYUN 1C DEB

Satellite information

Favourite Embed

Satellite Type and Status

DEBRISIN ORBIT

Key statistics

Satellite FENGYUN 1C DEB at a glance.

Uptime

9717

Days in orbit

Revolutions

≈ 13.3

Per day

Orbit

SSO

Sun Synchronous Orbit

Inclination

98.4

Latest

Satellite identification and parameters

Extended collection of information and parameters for FENGYUN 1C DEB.

Object identification

Identified? True

Debris? True

Object name: FENGYUN 1C DEB

International designator: 1999-025CXP

Object number (NORAD): 32322

Object ID (CCSDS): 32322

Country: PEOPLES REPUBLIC OF CHINA (PRC)

Current information (Y/N): Y

RCS size: SMALL

Orbital parameters

Period: 107.935 minutes

Inclination: 98.3701 deg

SMA: 7509.328 km

Apoapsis: 1445.986 km

Periapsis: 816.4 km

RAAN: 229.8224 deg

Eccentricy: 0.04192023

Argument of periapsis: 94.6417 deg

Mean anomaly: 270.2706 deg

Mean motion: 13.34139169 rev/day

Mean motion (dot): 0.00001214 rev/day2

B* drag term: 0.0015201045 1/REarth

Two-line elements (TLE)

Creation date: Dec. 14, 2025, 11:30 a.m.

Reference frame: TEME

Reference center: EARTH

Epoch: Dec. 13, 2025, 10:17 p.m. UTC

TLE line 0: 0 FENGYUN 1C DEB

TLE line 1: 1 32322U 99025CXP 25347.92915007 .00001214 00000-0 15201-2 0 9990

TLE line 2: 2 32322 98.3701 229.8224 0419202 94.6417 270.2706 13.34139169603957

Live tracking on map

Real-time ground track for satellite FENGYUN 1C DEB.

In-orbit conjunctions

A list of the most updated potential collisions computed for object FENGYUN 1C DEB.

Target Orbit TCA Probability of collision Miss distance Type
AUREOLE 3 LEO 2025-05-15 22:37:34 0.0001607584 326.0 (m) PAYLOAD

Associated space launch

Chinese polar orbiting meteorological satellite

FENGYUN 1C DEB was lifted into orbit during the mission ‘Long March 4B | Feng Yun 1C’, on board a Long March 4B space rocket.

The launch took place on May 10, 1999, 1:33 a.m. from Launch Complex 7.

For more information about the launch, click the button.

Launch to space Long March 4B | Feng Yun 1C
Long March 4B | Feng Yun 1C

Agency: N/A

Status: Launch Successful

Launch date: May 10, 1999, 1:33 a.m. UTC

Rocket: Long March 4B

Launch pad: Launch Complex 7

Location: Taiyuan Satellite Launch Center, People's Republic of China

...

Latest news about this satellite

There are no fresh news available about this satellite. Check back as we update our databases every day.


Newsletter sign-up

Weekly statistics, charts and insights to help you stay on top of the space industry.